Location: Angola by the Bay
(38.6709°N, 75.1746°W)
Time: 01:18:47
(UTC+00:00)

Gurwin Techsat 1B - Pass Details

Date: 23 December 2025
Orbit: 810 x 811 km, 99.0° (Epoch: 19 January)

Event Time Altitude Azimuth Distance (km) Brightness Sun altitude
Rises 09:45:05 0° 16° (NNE) 3,338 11.9 -28.6°
Reaches altitude 10° 09:47:27 10° 18° (NNE) 2,403 11.1 -28.1°
Maximum altitude 09:52:45 71° 102° (ESE) 857 8.8 -27.1°
Drops below altitude 10° 09:58:01 10° 187° (S) 2,387 11.1 -26.1°
Sets 10:00:21 0° 189° (S) 3,315 11.8 -25.6°
